Regional Weather Roundup
Issued by NWS

Home | Current Version | Previous Version | Text Only | Print | Product List | Glossary On
Versions: 1 2 3 4 5 6 7 8 9 10 11 12 13 14 15 16 17 18 19 20 21 22 23 24 25 26 27 28 29 30 31 32 33 34 35 36 37 38 39 40 41 42 43 44 45 46 47 48 49 50
000
ASUS44 KOUN 241210
RWROK

WEATHER ROUNDUP FOR OKLAHOMA
NATIONAL WEATHER SERVICE NORMAN OK
700 AM CDT SUN SEP 24 2017

NOTE: "FAIR" INDICATES FEW OR NO CLOUDS BELOW 12,000 FEET WITH NO
      SIGNIFICANT WEATHER AND/OR OBSTRUCTIONS TO VISIBILITY.

OKZ001>007-009>012-014-015-017-241300-
NORTHWEST OKLAHOMA AND THE PANHANDLE

CITY           SKY/WX    TMP DP  RH WIND       PRES   REMARKS
GAGE           MOCLDY    68  61  78 SE12      29.88R
6HR MIN TEMP:  68; 6HR MAX TEMP:  74;

GUYMON         LGT RAIN  61  61 100 NE5       29.89F
ENID/WOODRING  CLOUDY    68  64  88 SE7       29.89S
$$

OKZ016-021>023-033>039-044-045-241300-
SOUTHWEST OKLAHOMA

CITY           SKY/WX    TMP DP  RH WIND       PRES   REMARKS
LAWTON/REGL    CLOUDY    69  66  90 SE6       29.89R
6HR MIN TEMP:  69; 6HR MAX TEMP:  74;

LAWTON/FT SILL CLOUDY    69  67  95 SE6       29.89R
FREDERICK      PTCLDY    68  65  90 E8        29.86R
CLINTON        CLOUDY    69  63  81 S12       29.91R
HOBART         CLOUDY    70  64  81 S12       29.90R
ALTUS AFB      CLOUDY    69  64  84 SE10      29.88R
$$

OKZ018>020-024>031-241300-
CENTRAL OKLAHOMA

CITY           SKY/WX    TMP DP  RH WIND       PRES   REMARKS
OKLAHOMA CITY  MOCLDY    67  65  93 SE7       29.90S
6HR MIN TEMP:  67; 6HR MAX TEMP:  75;

OKC/WILEY POST PTCLDY    73  66  78 S13       29.90S
OKC/TINKER AFB CLEAR     71  65  84 SE8       29.91R
STILLWATER     CLEAR     71  65  81 SE6       29.91R
GUTHRIE        PTCLDY    71  65  81 SE5       29.90R
$$

OKZ008-013-054>072-241300-
NORTHEAST OKLAHOMA

CITY           SKY/WX    TMP DP  RH WIND       PRES   REMARKS
TULSA          PTCLDY    72  66  81 SE8       29.92R
6HR MIN TEMP:  69; 6HR MAX TEMP:  77;

TULSA/JONES    CLEAR     68  66  93 CALM      29.93R
PONCA CITY     CLEAR     72  64  76 SE10      29.91R
MUSKOGEE       CLEAR     68  66  93 SE3       29.95R
$$

OKZ032-040>043-046>053-073>077-241300-
SOUTH CENTRAL/SOUTHEAST OKLAHOMA

CITY           SKY/WX    TMP DP  RH WIND       PRES   REMARKS
ARDMORE/DWNTWN CLEAR     70  64  83 CALM      29.90S
MCALESTER      PTCLDY    71  67  87 CALM      29.94S
$$




USA.gov is the U.S. government's official web portal to all federal, state and local government web resources and services.